Tracking 19636 objects as of 24-May-2019
HD Live streaming from Space Station
objects crossing your sky now

NAXING 1

Track NAXING 1 now!
10-day predictions
NAXING 1 is classified as:


NORAD ID: 28221
Int'l Code: 2004-012B
Perigee: 584.8 km
Apogee: 600.1 km
Inclination: 97.8 °
Period: 96.4 minutes
Semi major axis: 6963 km
RCS: 0.3151 m2 (medium)
Launch date: April 18, 2004
Source: People's Republic of China (PRC)
Launch site: Xichang Space Center, China (XSC)

China's first nano-satellite; high-tech demonstration experiments
aabbcc
Your satellite tracking list
Your tracking list is empty




NASA's NSSDC Master Catalog

Two Line Element Set (TLE):
1 28221U 04012B   19143.08324222  .00000014  00000-0  67588-5 0  9997
2 28221  97.7955  89.6581 0010945  15.1894 344.9652 14.94048013820785
Source of the keplerian elements: AFSPC